Regional Weather Roundup
Issued by NWS

Home | Current Version | Previous Version | Text Only | Print | Product List | Glossary Off
Versions: 1 2 3 4 5 6 7 8 9 10 11 12 13 14 15 16 17 18 19 20 21 22 23 24 25 26 27 28 29 30 31 32 33 34 35 36 37 38 39 40 41 42 43 44 45 46 47 48 49 50

000
ASUS45 KTFX 291010
RWRMT
MONTANA REGIONAL WEATHER ROUNDUP
NATIONAL WEATHER SERVICE GREAT FALLS MT
400 AM MDT WED JUL 29 2015

NOTE: "FAIR" INDICATES FEW OR NO CLOUDS BELOW 12000 FEET WITH NO
SIGNIFICANT WEATHER AND/OR OBSTRUCTIONS TO VISIBILITY.

MTZ001>007-043-291100-
WEST OF THE DIVIDE

CITY           SKY/WX    TMP DP  RH WIND       PRES   REMARKS
KALISPELL      SUNNY     42  39  89 CALM      30.22R
MISSOULA       CLEAR     52  42  69 CALM      30.28R
BUTTE          CLEAR     39  35  86 E5        30.36R
MULLAN PASS    CLEAR     51  33  50 CALM      30.34S
EUREKA           N/A     48  43  81 CALM      30.22R
HAMILTON         N/A     52  39  62 S9        30.29R
LIBBY            N/A     45  41  87 CALM      30.24R
PLAINS           N/A     47  40  76 CALM      30.24R
$$

MTZ008-052>055-291100-
SOUTHWEST MONTANA

CITY           SKY/WX    TMP DP  RH WIND       PRES   REMARKS
BOZEMAN        CLEAR     46  39  76 S8        30.30R
DILLON         CLEAR     45  37  73 S10       30.33R
W YELLOWSTONE  CLEAR     30  28  93 CALM      30.41S
TWIN BRIDGES     N/A     44  36  73 E3        30.28R
$$

MTZ009-010-012-014-046-048-049-054-291100-
EAST SLOPES AND CENTRAL MONTANA

CITY           SKY/WX    TMP DP  RH WIND       PRES   REMARKS
CUT BANK       CLEAR     51  41  68 W13       30.17S
GREAT FALLS    CLEAR     54  39  57 SW12      30.20R
MALMSTROM AFB  CLEAR     52  41  67 SW10      30.20R
HELENA         CLEAR     54  39  57 NE3       30.26R
CONRAD           N/A     50  46  85 SW3       30.18R
$$

MTZ011-013-016-021-045-047-050-051-291100-
NORTH CENTRAL MONTANA

CITY           SKY/WX    TMP DP  RH WIND       PRES   REMARKS
HAVRE          CLEAR     52  46  80 SW10      30.11R
LEWISTOWN      CLEAR     45  38  76 SE6       30.23R
CHINOOK          N/A     54  48  82 CALM      30.10R
FORT BENTON      N/A     52  43  71 SW6       30.17R
$$

MTZ017>020-022>027-061-062-291100-
NORTHEAST MONTANA

CITY           SKY/WX    TMP DP  RH WIND       PRES   REMARKS
GLASGOW        PTCLDY    55  47  74 W5        30.05R
JORDAN           N/A     52  45  77 W8        30.11R
SIDNEY         MOCLDY    61  46  59 W15       29.99R
WOLF POINT     MOCLDY    56  49  77 W9        30.03R
PLENTYWOOD       N/A     55  50  82 W10       29.95R
POPLAR           N/A     57  50  77 SW8       30.02R
SCOBEY           N/A     52  45  77 W2        29.98R
$$

MTZ028>42-056>058-291100-
SOUTHCENTRAL AND SOUTHEAST MONTANA

CITY           SKY/WX    TMP DP  RH WIND       PRES   REMARKS
BAKER          PTCLDY    53  38  56 SW10      30.11R
BILLINGS       PTCLDY    57  35  43 SW16      30.23R
LIVINGSTON     CLEAR     54  36  50 W12       30.28R
MILES CITY     CLEAR     56  42  59 NW7       30.12R
FORSYTH          N/A     57  43  58 W3        30.15R
LAUREL           N/A     50  36  58 W5        30.20S
ROUNDUP          N/A     50  39  65 SW5       30.11R
$$

REGIONAL REPORTS...DAKOTAS

CITY           SKY/WX    TMP DP  RH WIND       PRES   REMARKS
WILLISTON      MOCLDY    58  50  75 W17       29.95R
MINOT          MOCLDY    63  51  65 W17       29.81R
DICKINSON      PTCLDY    57  44  62 W16       30.01R
BEACH          FAIR      55  43  62 W15       30.06S
CROSBY         FAIR      59  55  88 W16       29.88R
BISMARCK       CLEAR     62  47  57 W18       29.94R
GRAND FORKS    CLOUDY    65  54  67 W26G35    29.60R
FARGO          MOCLDY    64  50  60 SW22G31   29.74R
BUFFALO SD       N/A     52  38  58 W14       30.07R
RAPID CITY     CLEAR     49  42  77 CALM      30.22R
$$

REGIONAL REPORTS...WYOMING/IDAHO/WASHINGTON

CITY           SKY/WX    TMP DP  RH WIND       PRES   REMARKS
GILLETTE       CLEAR     53  35  50 SW10      30.27R
SHERIDAN       CLEAR     50  35  56 SW5       30.25S
BUFFALO WY     CLEAR     51  33  50 W8        30.31R
CODY           CLEAR     52  34  50 SW3       30.32S
YELLOWSTONE LA   N/A     29  26  89 CALM      30.46F
IDAHO FALLS    CLEAR     41  38  89 N6        30.33R
SALMON         CLEAR     45  39  81 CALM      30.32S
BOISE          CLEAR     60  37  42 S3        30.21R
SPOKANE        PTCLDY    60  36  40 SE6       30.20R
$$

REGIONAL REPORTS...ALBERTA

CITY           SKY/WX    TMP DP  RH WIND       PRES   REMARKS
CALGARY        PTCLDY    59  37  44 NW7       30.12S
LETHBRIDGE     CLEAR     52  43  71 SW10      30.12S
MEDICINE HAT   CLEAR     52  48  87 SW7       30.07S
MILK RIVER       N/A     48  43  81 W10         N/A
ONEFOUR          N/A     54  43  66 NW16        N/A
$$

REGIONAL REPORTS...SASKATCHEWAN

CITY           SKY/WX    TMP DP  RH WIND       PRES   REMARKS
SWIFT CURRENT  CLEAR     54  48  82 W12       30.00R
REGINA         PTCLDY    55  52  88 NW12      29.86R
SASKATOON      PTCLDY    55  52  88 NW10      29.86S
CYPRESS HILLS    N/A     48  41  76 W3          N/A
VAL MARIE        N/A     50  46  87 W2          N/A
ROCKGLEN         N/A     54  46  76 W12         N/A
ASSINIBOIA       N/A     50  46  87 W7          N/A
$$



USA.gov is the U.S. government's official web portal to all federal, state and local government web resources and services.